Location: Unspecified
(0.0000°N, 0.0000°E)
Time: 08:50:21
(UTC+00:00)

O/OREOS (USA 219) - Pass Details

Date: 18 May 2021
Orbit: 621 x 646 km, 72.0° (Epoch: 22 May)

Event Time Altitude Azimuth Distance (km) Brightness Sun altitude
Exits shadow 05:26:25 - 215° (SW) 2,571 ? -7.1°
Reaches altitude 10° 05:28:02 10° 223° (SW) 1,988 ? -6.7°
Maximum altitude 05:31:54 30° 284° (WNW) 1,124 ? -5.8°
Drops below altitude 10° 05:35:47 10° 345° (NNW) 1,979 ? -4.9°
Sets 05:38:15 0° 357° (N) 2,883 ? -4.3°
